Location: Luxembourg
(49.6117°N, 6.1300°E)
Time: 02:02:08
(UTC+01:00)

N. Korean satellite - Pass Details

Date: 08 December 2021
Orbit: 446 x 492 km, 97.3° (Epoch: 16 January)

Event Time Altitude Azimuth Distance (km) Brightness Sun altitude
Rises 05:22:43 0° 21° (NNE) 2,464 10.4 -27.4°
Reaches altitude 10° 05:24:56 10° 33° (NNE) 1,584 9.5 -27.1°
Maximum altitude 05:27:58 30° 96° (E) 830 8.3 -26.6°
Drops below altitude 10° 05:30:59 10° 160° (SSE) 1,572 9.4 -26.1°
Sets 05:33:10 0° 171° (S) 2,441 10.3 -25.7°
